User: anonymous   Login
Location: Summit Observatory
(39.5293°N, 75.7290°W)
Time: 04:56:27
(UTC-05:00)
Language:

Gurwin Techsat 1B - Orbit

View from above orbital plane
View from above orbital plane
View from above satellite
View from above satellite

Ground track
Ground track

The orbit data is extracted from the following two-line orbital elements,

1 25397U 98043D   14329.41925333  .00000138  00000-0  79143-4 0  5052
2 25397 098.4924 281.5688 0001577 153.6604 318.0533 14.23487398850800
Epoch (UTC): 25 November 2014 10:03:43
Eccentricity: 0.0001577
inclination: 98.4924°
perigee height: 812 km
apogee height: 815 km
right ascension of ascending node: 281.5688°
argument of perigee: 153.6604°
revolutions per day: 14.23487398
mean anomaly at epoch: 318.0533°
orbit number at epoch: 85080

The dashed part of the orbit path shows where the satellite is in the earth's shadow,  

DLR